RH
8 9 14 18 19 23 27 27 27 28 36 46 50 57 64 64 65 66 69 70 68 69 73 71 73 76 76 78 79 78 79 80 79 77 73 68 66 65 64 62 62 66 70 71 67 61 56 48 42 43 44 45 46 47 45 43 43 44 46 44 39 36 37 37 35 36 39 39 39 39 38 39 40 39 40 40 40 38 37 38 41 43 45 48 48 47
9 13 17 20 21 23 24 25 26 27 35 49 54 56 62 65 66 67 67 68 67 67 70 71 73 76 77 78 79 78 80 81 79 78 76 72 68 67 66 64 64 69 72 72 70 65 60 53 45 43 44 43 45 46 44 43 41 41 44 43 39 38 37 36 36 36 40 41 41 41 41 43 44 43 43 43 43 41 38 38 39 41 44 48 49 48
11 16 19 18 19 20 20 21 24 32 39 45 51 53 57 63 66 67 67 67 68 66 65 68 71 75 76 77 78 79 80 80 78 76 75 74 72 68 69 67 64 66 69 71 70 66 63 58 49 45 44 43 44 45 44 43 42 40 40 40 39 39 37 36 36 36 40 42 43 45 45 47 47 47 48 46 44 42 39 38 38 39 42 47 50 50
13 15 16 16 17 18 20 20 24 38 40 37 45 50 51 56 59 62 65 67 69 66 64 65 69 74 77 75 75 77 78 78 77 76 75 74 74 71 70 69 65 62 64 70 69 65 66 63 54 47 44 44 43 45 43 42 42 41 39 38 36 37 36 34 35 36 41 45 45 46 48 50 49 48 50 48 46 44 40 38 39 39 40 44 48 49
15 15 14 16 19 19 21 23 27 35 36 34 43 49 50 53 54 56 61 64 68 67 63 65 68 73 74 72 73 74 76 77 75 77 77 76 76 75 73 71 68 63 61 67 68 65 65 64 58 51 45 45 44 43 44 42 42 43 40 37 34 34 33 33 33 35 41 46 46 45 46 49 50 48 49 49 47 46 42 39 39 39 39 41 44 45
16 16 15 15 18 18 17 20 24 26 29 33 39 41 44 48 50 54 59 63 69 69 63 63 65 69 70 67 69 72 74 74 73 75 77 76 75 77 76 73 71 68 62 62 65 64 65 64 62 57 48 45 44 43 43 42 42 43 42 38 33 32 32 31 33 36 40 44 47 47 47 48 50 50 50 48 46 43 40 40 40 39 39 40 41 42
14 15 14 15 16 15 14 15 17 17 21 30 35 34 35 42 48 53 56 62 69 68 62 60 58 61 65 62 63 69 71 71 71 73 75 74 73 75 78 74 72 71 65 62 62 63 66 66 64 62 53 46 45 43 43 43 42 43 43 40 35 31 29 30 32 36 40 43 47 51 51 50 51 51 50 49 45 41 39 40 41 40 39 40 41 41
14 14 14 15 14 13 11 11 13 13 17 27 31 30 31 38 49 56 56 58 59 56 55 59 59 60 64 60 59 66 71 71 70 69 71 72 71 73 77 76 72 71 68 64 62 63 65 66 65 64 58 49 46 44 43 43 42 43 43 41 37 32 29 30 33 37 39 42 48 52 53 52 51 51 51 50 48 44 42 43 41 39 39 41 42 42
15 16 15 13 12 11 10 10 10 10 18 25 24 25 29 36 49 57 55 52 47 45 50 55 56 60 66 62 59 64 70 72 71 68 67 69 69 69 74 77 74 72 71 68 65 62 62 64 64 64 61 53 46 45 44 43 43 44 44 42 39 35 30 29 33 36 38 42 47 51 51 51 50 50 50 50 49 48 47 45 41 38 39 42 42 41
18 17 17 15 13 14 12 10 9 9 15 20 19 22 27 33 43 46 46 45 38 33 39 44 45 51 58 59 59 64 68 69 68 68 67 67 67 67 69 76 75 73 73 71 68 63 60 62 64 65 65 58 48 44 44 43 43 44 45 44 41 37 31 29 31 34 37 40 45 49 50 49 48 49 49 50 51 51 49 47 44 42 41 43 43 42
20 17 18 18 19 21 18 13 10 10 12 17 20 23 22 26 34 39 44 43 34 31 35 38 40 42 46 51 57 62 66 65 66 68 69 67 67 66 66 72 76 74 72 72 71 66 62 61 63 65 67 62 52 46 44 44 44 45 46 46 44 38 32 29 29 31 33 36 41 47 49 48 48 49 49 51 53 51 49 48 47 46 45 44 45 45
22 20 21 21 22 24 23 17 12 11 12 16 21 22 20 23 28 35 42 36 29 35 43 45 45 42 43 48 52 56 60 62 65 67 67 66 66 67 66 68 74 75 73 72 72 68 64 60 61 64 67 64 56 48 45 44 44 44 45 46 45 40 33 29 28 29 31 33 38 43 46 46 47 47 48 50 52 50 48 47 47 46 44 43 44 45
22 22 21 21 23 24 24 20 16 14 13 16 20 19 19 21 21 26 37 35 32 40 47 50 51 50 51 48 46 49 53 57 61 65 67 67 66 67 68 67 71 76 74 72 72 71 67 61 60 63 66 64 59 52 46 45 44 44 45 46 45 42 36 30 28 28 29 30 35 40 42 44 45 46 47 49 50 49 47 46 47 45 43 42 42 41
23 22 20 21 25 26 25 24 21 20 17 17 21 20 22 27 24 27 35 37 40 47 53 55 52 54 59 53 48 49 51 53 56 60 64 67 66 66 67 67 68 73 75 74 72 71 69 63 60 61 64 63 61 57 50 45 45 44 45 45 44 41 37 31 27 27 26 27 31 36 39 41 44 46 47 48 50 49 46 45 45 45 43 43 43 41
23 23 22 23 27 29 29 27 25 26 24 22 23 24 28 34 34 36 40 40 43 52 61 60 54 57 62 60 56 53 53 56 58 60 64 67 67 66 65 67 67 68 73 75 72 71 71 66 61 59 62 63 63 62 55 47 45 45 45 44 44 41 37 32 28 25 24 23 26 32 35 38 41 44 45 46 47 47 45 44 45 44 42 42 43 44
24 24 23 26 30 31 30 29 28 29 29 28 28 30 33 35 37 41 44 44 47 55 65 64 58 62 64 62 61 57 56 59 60 62 67 68 69 67 65 67 67 66 70 73 72 70 71 70 63 58 60 63 64 64 59 52 47 46 45 44 44 42 36 33 29 27 25 23 23 28 32 35 38 40 42 43 43 44 43 42 42 41 40 40 41 43
25 25 26 28 31 31 30 31 30 29 30 33 33 34 35 34 37 41 43 45 47 52 61 61 60 64 65 64 64 60 60 62 61 63 67 68 69 68 66 68 68 66 67 72 73 69 71 74 67 59 58 61 64 64 62 57 49 46 46 45 44 43 38 34 31 29 28 25 23 25 28 31 32 35 41 43 42 43 41 39 39 39 40 40 40 41
26 27 28 28 28 30 31 32 32 29 31 34 36 36 35 34 37 40 44 50 53 53 55 59 62 64 63 66 69 67 65 65 64 65 67 68 69 69 68 68 69 68 67 71 75 71 71 76 72 61 56 57 61 63 62 59 53 47 47 47 45 44 40 36 32 31 31 29 26 26 26 28 28 31 36 40 40 40 39 38 36 37 42 44 44 43
25 27 28 27 27 31 33 33 34 33 31 32 36 38 37 37 41 43 44 48 53 57 56 58 62 62 62 67 71 72 71 69 68 69 71 70 69 70 72 70 70 70 68 70 76 75 73 77 75 67 59 56 59 62 62 61 56 51 49 48 46 45 43 39 34 32 32 32 31 30 28 27 27 28 30 32 34 35 37 37 37 37 40 45 48 48
21 25 27 27 26 28 32 34 35 36 34 32 35 39 39 40 42 43 43 45 53 61 61 61 63 64 66 67 69 71 72 71 70 71 73 71 69 71 73 73 71 71 71 72 75 77 76 76 76 70 63 58 58 60 60 60 58 54 52 50 48 46 45 42 37 33 31 32 33 33 31 29 28 28 28 29 31 32 33 35 36 36 39 42 46 48
20 22 25 26 25 26 29 32 35 38 37 35 37 39 40 42 41 42 46 49 54 60 63 65 65 65 66 63 61 66 70 72 71 70 72 71 69 71 74 75 73 70 71 72 73 76 77 75 74 73 70 65 60 59 60 59 58 56 54 52 49 47 45 43 40 36 33 32 34 34 34 32 31 30 30 30 31 31 31 33 35 36 38 41 43 45
19 19 22 24 25 26 29 31 32 36 36 36 37 38 39 42 43 47 53 55 56 57 59 63 64 65 65 60 59 65 69 71 70 70 72 70 68 68 69 72 73 71 70 69 70 74 76 75 73 73 74 71 64 59 57 58 57 56 54 53 51 48 45 43 42 39 36 34 35 35 36 35 35 34 33 33 33 33 33 36 38 39 40 43 44 44
21 22 22 23 25 26 29 32 31 33 35 35 36 39 41 43 46 50 53 53 55 56 56 59 62 64 64 62 63 67 67 67 67 69 71 70 67 67 65 67 69 70 70 70 70 71 73 75 74 72 74 74 69 62 57 58 58 55 52 52 52 50 45 44 42 40 39 37 36 37 37 38 38 37 36 35 36 36 38 41 45 46 46 47 48 47
24 26 25 27 31 29 30 35 32 31 35 37 37 39 39 40 44 47 49 49 51 53 55 59 63 65 65 64 65 65 65 66 68 69 70 70 70 68 66 65 65 65 68 69 72 74 75 76 77 76 74 75 74 68 61 59 59 56 51 50 52 52 47 43 43 42 41 39 38 38 38 38 38 38 38 37 37 38 42 46 49 51 52 51 51 52
26 30 31 34 36 33 34 39 37 35 37 40 39 40 40 43 44 44 46 49 50 50 52 55 60 62 62 63 64 63 64 66 66 66 68 70 70 70 68 67 66 64 64 66 72 80 81 80 80 79 77 78 78 73 66 61 60 58 53 50 51 52 49 44 42 42 42 41 40 40 40 41 40 39 39 39 38 38 43 49 52 53 55 54 53 54
27 31 36 37 35 34 36 40 39 37 37 38 39 39 41 44 46 45 46 48 50 50 49 50 53 54 55 58 60 62 64 64 62 64 66 68 68 69 69 68 67 65 65 66 69 77 83 84 85 83 79 79 81 77 71 66 62 58 55 51 50 51 50 47 43 42 42 41 40 40 42 44 43 43 44 44 43 41 43 48 51 52 53 54 54 54
29 28 34 38 34 31 34 36 35 34 33 33 35 36 38 41 43 44 46 47 50 50 47 48 50 48 49 53 55 60 62 61 62 65 66 66 66 66 65 64 64 64 65 67 69 72 75 79 85 88 84 81 81 79 76 71 65 60 56 53 51 49 50 49 45 43 43 42 41 41 43 45 45 46 48 47 46 45 45 46 47 48 50 51 53 54
29 25 28 33 30 27 28 29 27 27 27 27 29 33 36 40 42 41 40 43 47 47 46 51 51 46 48 51 52 57 60 60 64 66 65 63 63 63 61 59 59 61 64 69 72 75 75 72 76 85 88 86 82 79 76 73 69 64 59 55 52 50 49 50 47 44 43 43 43 43 44 45 46 48 50 49 47 46 46 44 43 45 48 50 53 55
29 28 27 26 25 25 25 24 22 22 24 25 27 31 34 38 40 39 39 40 40 39 42 50 51 47 50 53 52 55 57 58 61 64 63 63 63 64 63 60 59 60 63 67 71 74 77 76 75 79 83 87 87 82 76 73 73 70 65 62 60 56 52 51 49 46 44 44 44 44 45 44 45 46 48 47 46 45 45 45 45 45 46 49 52 53
29 33 33 26 23 26 25 22 20 20 23 24 24 27 31 37 40 39 38 38 36 35 39 47 50 50 53 57 57 57 56 55 57 60 62 64 64 65 65 62 62 64 64 66 67 69 73 76 78 79 80 84 88 86 80 77 76 74 71 70 70 68 62 57 54 50 46 45 44 43 44 44 44 44 45 45 46 46 47 49 49 48 47 48 50 53
30 36 38 31 28 30 29 25 22 21 23 24 25 27 31 36 37 35 35 37 36 37 41 47 51 52 55 60 61 58 55 54 55 56 57 59 63 65 65 63 64 68 68 67 67 69 71 73 75 78 81 83 85 85 84 84 82 78 74 71 72 75 73 67 63 57 49 45 44 43 43 44 44 44 45 46 47 49 50 51 50 48 47 46 47 50
35 37 38 37 35 35 33 29 28 27 25 25 30 32 33 35 35 34 37 39 38 41 44 45 48 52 57 60 60 57 56 56 55 53 53 56 61 64 65 64 66 70 70 68 67 68 70 71 72 74 78 82 83 83 83 85 85 81 77 75 75 78 78 74 71 66 56 47 42 42 43 44 44 45 46 46 47 48 49 49 48 46 46 45 45 45
39 39 39 39 38 37 35 33 34 34 30 32 38 38 35 39 41 42 46 47 44 42 42 43 47 51 55 56 56 56 56 56 55 53 53 55 57 61 64 65 67 69 68 66 66 67 69 71 72 72 74 78 81 82 82 83 83 81 79 79 80 82 81 76 72 72 68 57 46 43 44 45 45 45 46 46 45 46 47 46 46 46 48 48 46 46
42 42 41 40 37 35 36 36 37 36 34 36 41 41 39 43 46 49 54 55 50 45 44 46 49 50 51 52 52 53 52 53 54 54 54 54 54 57 61 63 65 66 65 64 64 64 66 68 69 70 72 74 78 81 83 85 84 82 80 80 82 84 85 81 75 73 73 68 59 52 50 50 50 47 47 46 46 47 48 47 47 49 50 49 50 52
41 41 39 39 37 36 40 41 39 39 38 37 39 41 45 48 49 51 53 54 53 52 52 52 50 47 47 47 46 45 46 49 52 53 53 54 54 55 58 60 61 61 60 62 62 61 62 64 64 64 65 69 75 79 82 83 84 84 82 80 81 83 84 83 79 74 73 73 71 66 59 56 55 52 49 49 51 53 53 50 48 48 48 49 51 53
40 41 39 38 37 37 40 40 40 42 42 40 39 42 46 48 47 49 52 53 52 53 54 53 50 47 46 45 43 43 45 48 51 52 51 52 53 53 55 58 60 61 60 61 61 60 61 62 61 61 61 63 68 74 79 81 81 82 83 82 81 82 84 85 83 79 76 76 77 76 69 63 61 57 53 53 57 61 60 55 50 48 47 49 52 54
39 41 39 37 37 39 40 40 41 42 43 44 45 45 45 45 45 49 54 53 51 52 53 51 49 47 46 46 45 44 44 46 47 48 49 50 51 51 52 54 59 63 63 62 61 61 61 60 61 61 60 59 61 66 73 79 82 83 85 87 87 85 84 85 85 83 80 78 78 79 77 72 68 65 61 58 60 62 62 59 56 52 51 51 52 54
40 41 40 37 39 43 43 42 42 42 44 48 50 46 45 46 46 49 53 52 50 51 50 48 49 49 48 48 47 45 44 44 45 46 47 48 49 50 50 52 56 62 64 63 62 61 61 60 60 59 59 59 60 63 67 73 79 84 86 88 91 90 87 86 86 85 83 80 77 78 78 74 72 72 69 65 62 61 59 60 60 60 60 62 63 64
41 44 44 42 44 46 44 42 43 43 47 50 50 46 46 48 47 46 49 52 50 48 47 47 50 51 49 47 46 45 43 42 44 43 42 45 50 52 52 53 54 57 59 60 60 59 59 59 58 59 60 59 59 60 62 66 71 78 81 83 87 91 91 90 89 90 90 85 79 77 76 73 72 74 74 70 67 64 62 62 65 68 72 76 77 76
43 46 48 47 47 47 45 43 43 44 46 47 48 47 47 47 46 45 47 50 48 45 46 47 47 48 47 45 44 44 42 41 42 42 42 46 52 56 56 55 55 55 57 58 59 60 60 57 56 58 59 58 58 59 61 61 63 69 76 81 86 89 91 92 93 92 92 88 81 80 79 76 74 76 77 74 72 74 73 71 71 74 79 82 80 77
46 48 51 51 50 49 47 44 44 46 46 44 45 46 43 42 45 47 49 48 44 43 46 45 42 41 42 41 42 43 41 39 39 41 45 49 53 57 58 57 57 59 59 60 61 62 61 58 57 58 59 58 60 61 61 62 64 66 70 80 88 92 91 93 94 93 90 89 85 83 82 78 76 77 77 76 77 79 80 81 80 80 79 79 79 79
48 49 51 51 51 52 51 48 49 52 50 45 45 45 42 43 49 51 47 44 42 44 47 43 39 38 39 40 41 41 39 38 40 44 49 51 53 56 57 58 59 61 62 62 62 62 60 58 60 62 61 60 61 61 65 75 79 75 76 84 92 96 95 94 95 94 94 93 90 86 83 80 78 78 80 81 81 79 81 84 84 80 77 77 80 81
52 52 53 52 52 53 52 50 51 56 55 48 48 50 49 50 54 52 47 46 48 48 46 43 40 39 40 40 39 38 39 41 43 46 51 54 55 56 56 58 59 60 61 63 64 63 62 61 63 65 64 64 63 64 73 87 89 82 83 89 92 93 94 92 92 94 94 92 89 88 86 84 82 81 83 84 82 79 79 79 77 77 77 79 81 80
53 53 54 54 54 54 55 54 55 58 56 51 50 54 54 54 54 52 50 51 52 49 46 44 42 39 38 36 34 36 40 43 44 46 50 55 59 59 58 59 59 59 61 65 66 65 62 62 65 68 67 67 67 67 73 82 84 81 84 88 89 90 91 91 90 91 92 91 90 90 89 86 84 83 83 82 80 78 77 76 75 77 81 82 82 82
54 54 55 56 56 56 57 58 58 56 54 51 50 52 52 52 54 52 51 50 50 47 46 44 42 38 35 33 33 36 40 42 43 44 47 53 59 62 62 62 61 60 63 66 67 65 63 65 67 69 70 71 72 73 74 76 78 78 79 82 85 86 88 90 91 91 91 91 90 90 89 87 85 84 82 82 81 79 80 80 81 83 85 85 83 82
57 56 55 56 56 55 56 57 57 56 55 53 51 51 51 52 54 52 50 49 49 47 46 45 44 40 35 34 34 36 38 40 41 42 44 49 57 64 66 65 64 64 65 66 66 66 67 69 69 70 73 75 77 80 81 81 82 83 82 83 85 86 88 91 91 91 91 91 90 90 89 87 85 84 84 85 85 84 84 84 84 84 85 83 80 77
58 57 58 57 55 55 58 59 60 59 58 54 51 52 53 54 54 52 51 51 51 49 47 47 46 42 38 37 36 35 36 38 39 39 40 43 52 61 66 66 66 66 66 66 67 68 70 70 69 71 73 76 80 83 83 83 86 89 89 90 91 92 94 93 91 91 92 92 90 90 90 88 86 85 86 87 87 86 86 84 83 81 80 76 71 69
59 57 59 60 58 59 63 65 64 62 60 56 54 56 57 56 56 54 52 52 52 51 49 47 44 41 39 38 38 37 37 38 38 38 38 38 43 54 63 67 68 68 68 68 68 70 69 68 70 72 72 74 81 84 83 84 88 90 90 93 94 93 94 93 91 92 94 92 89 88 88 88 86 85 86 87 85 83 82 80 78 76 73 67 62 61
57 57 60 61 62 64 67 65 63 62 62 60 58 59 59 58 56 55 54 54 54 52 50 47 44 40 38 36 36 36 36 38 39 39 38 37 39 46 55 64 68 69 69 69 69 69 69 68 69 72 71 72 78 83 84 86 89 90 89 91 91 90 90 89 89 90 90 89 89 89 89 90 89 88 86 84 82 80 78 75 73 72 70 66 61 61
58 61 63 63 64 68 68 64 62 63 65 63 61 62 61 59 57 56 55 56 55 52 48 45 43 41 38 35 35 35 34 35 37 39 40 40 39 41 46 56 65 68 68 66 66 67 68 67 66 67 67 69 77 84 86 86 88 90 90 89 90 89 88 87 87 88 88 88 87 86 87 86 85 84 82 80 78 78 77 74 71 68 66 64 62 61
60 64 66 65 67 68 64 61 61 64 67 68 67 65 63 59 58 58 58 58 56 53 49 45 42 40 38 37 36 35 34 34 36 39 40 41 40 40 42 48 56 63 66 66 65 67 70 70 67 65 65 67 73 80 82 83 86 87 84 82 83 83 81 79 79 80 79 78 76 75 76 77 76 76 75 74 72 72 70 69 66 64 63 64 64 64